Douglas, WY

7:10 AM MDT on April 26, 2017 (GMT -0600)
Converse County

Weather History for KDGW - October, 2011

Change the Weather History Date:

Wednesday, October 12, 2011

  Actual Average Record
Temperature  
Mean Temperature 45 °F 47 °F  
Max Temperature 59 °F 63 °F 77 °F (2015)
Min Temperature 31 °F 31 °F 19 °F (2009)
Degree Days  
Heating Degree Days 20 18  
Month to date heating degree days 126 193  
Since 1 July heating degree days 285 462  
Cooling Degree Days 0 0  
Month to date cooling degree days 0 0  
Year to date cooling degree days 641 486  
Moisture  
Dew Point 32 °F    
Average Humidity 62    
Maximum Humidity 100    
Minimum Humidity 24    
Precipitation  
Precipitation T in 0.04 in 0.16 in (2008)
Month to date precipitation 1.27 0.52  
Year to date precipitation 12.30 11.80  
Sea Level Pressure  
Sea Level Pressure 30.02 in    
Wind  
Wind Speed 9 mph (NW)    
Max Wind Speed 28 mph    
Max Gust Speed 33 mph    
Visibility 10 miles    
Events      
T = Trace of Precipitation, MM = Missing Value Source: NWS Daily Summary

Daily Weather History Graph

Daily Weather History Graph

Search for Another Location

Airport or City:

Trip Planner

Search our weather history database for the weather conditions in past years. The results will help you decide how hot, cold, wet, or windy it might be!

Date:

Astronomy

Oct. 12, 2011 Rise Set
Actual Time 7:11 AM MDT 6:24 PM MDT
Civil Twilight 6:42 AM MDT 6:52 PM MDT
Nautical Twilight 6:09 AM MDT 7:25 PM MDT
Astronomical Twilight 5:37 AM MDT 7:58 PM MDT
Moon 6:24 PM MDT (10/12) 7:50 AM MDT (10/12)
Length of Visible Light 12h 10m
Length of Day
11h 13m
Full, 100% of the Moon is Illuminated
Oct 12
Full
Oct 19
Last Quarter
Oct 26
New
Nov 2
First Quarter
Nov 10
Full

Hourly Weather History & Observations

Time (MDT) Temp. Windchill Dew Point Humidity Pressure Visibility Wind Dir Wind Speed Gust Speed Precip Events Conditions
1:53 AM 45.0 °F 40.6 °F 41.0 °F 86% 29.87 in 10.0 mi NW 8.1 mph - N/A   Overcast
2:53 AM 46.0 °F 40.6 °F 39.9 °F 79% 29.90 in 10.0 mi NW 11.5 mph - 0.00 in   Overcast
3:53 AM 44.1 °F 39.5 °F 41.0 °F 89% 29.93 in 10.0 mi NW 8.1 mph - N/A   Overcast
4:53 AM 39.9 °F 37.8 °F 37.9 °F 93% 29.96 in 10.0 mi WNW 3.5 mph - N/A   Partly Cloudy
5:53 AM 39.0 °F 36.8 °F 37.0 °F 93% 30.02 in 10.0 mi WSW 3.5 mph - N/A   Partly Cloudy
6:53 AM 36.0 °F - 35.1 °F 97% 30.05 in 10.0 mi Calm Calm - N/A   Mostly Cloudy
7:53 AM 39.9 °F 36.7 °F 37.9 °F 93% 30.07 in 10.0 mi WNW 4.6 mph - N/A   Mostly Cloudy
8:53 AM 44.1 °F 38.6 °F 39.0 °F 82% 30.09 in 10.0 mi NW 10.4 mph - N/A   Partly Cloudy
9:53 AM 48.9 °F - 37.0 °F 64% 30.08 in 10.0 mi WNW 19.6 mph - N/A   Clear
10:53 AM 53.1 °F - 33.1 °F 47% 30.06 in 10.0 mi NW 21.9 mph 29.9 mph N/A   Clear
11:53 AM 55.0 °F - 27.0 °F 34% 30.05 in 10.0 mi NW 20.7 mph 28.8 mph N/A   Clear
12:53 PM 55.9 °F - 28.9 °F 36% 30.04 in 10.0 mi WNW 18.4 mph 26.5 mph N/A   Clear
1:53 PM 57.0 °F - 21.9 °F 26% 30.02 in 10.0 mi WNW 20.7 mph 28.8 mph N/A   Clear
3:53 PM 57.9 °F - 23.0 °F 26% 30.01 in 10.0 mi NW 17.3 mph 24.2 mph N/A   Clear
4:53 PM 57.9 °F - 24.1 °F 27% 30.02 in 10.0 mi NW 13.8 mph 23.0 mph N/A   Clear
5:53 PM 55.0 °F - 25.0 °F 31% 30.03 in 10.0 mi NNW 9.2 mph - N/A   Clear
6:53 PM 46.9 °F - 28.0 °F 48% 30.06 in 10.0 mi North 3.5 mph - N/A   Clear
8:53 PM 39.9 °F 37.8 °F 30.0 °F 68% 30.08 in 10.0 mi South 3.5 mph - N/A   Clear
9:53 PM 37.0 °F - 30.0 °F 76% 30.07 in 10.0 mi Calm Calm - N/A   Clear
10:53 PM 35.1 °F - 30.0 °F 82% 30.08 in 10.0 mi Calm Calm - N/A   Clear